Waarnemingen

Advertentie
Mijn weer
Socoa, Frankrijk (7600): temperatuur & dauwpunt: 13.10.2017 12:00:00 - 19.10.2017 12:00:00 (CEST)Socoa, Frankrijk (7600): windsnelheid & windstoten: 13.10.2017 12:00:00 - 19.10.2017 12:00:00 (CEST)Socoa, Frankrijk (7600): windrichting: 13.10.2017 12:00:00 - 19.10.2017 12:00:00 (CEST)Socoa, Frankrijk (7600): luchtdruk: 13.10.2017 12:00:00 - 19.10.2017 12:00:00 (CEST)Socoa, Frankrijk (7600): zicht: 13.10.2017 12:00:00 - 19.10.2017 12:00:00 (CEST)Socoa, Frankrijk (7600): neerslag: 13.10.2017 12:00:00 - 19.10.2017 12:00:00 (CEST)
Datum & Tijd tt [°C] td [°C] ff [km/u] ff [kn] fx [km/u] fx [kn] dd ppp [hPa] vv [km] rr [mm]
19.10.2017 12:00:00 18,9 11,9 13 7 19 10 W 1012,4 - 0,0
19.10.2017 11:00:00 18,2 12,0 11 6 21 11 ZZW 1012,3 15 0,0
19.10.2017 10:00:00 15,6 12,7 11 6 34 18 ZZW 1011,9 - 0,0
19.10.2017 09:00:00 14,3 11,6 22 12 34 19 ZW 1011,3 - 0,0
19.10.2017 08:00:00 14,1 11,8 16 9 26 14 ZW 1011,7 - 0,0
19.10.2017 07:00:00 14,5 12,4 16 9 26 14 ZW 1011,4 - 0,0
19.10.2017 06:00:00 14,7 12,2 14 8 29 16 ZW 1011,1 - 0,0
19.10.2017 05:00:00 14,7 12,2 20 11 29 16 ZW 1011,0 15 0,0
19.10.2017 04:00:00 14,5 12,7 17 9 24 13 ZW 1011,1 - 0,0
19.10.2017 03:00:00 14,4 13,1 16 8 27 14 ZZW 1011,2 - 0,0
19.10.2017 02:00:00 14,4 13,4 18 10 32 17 ZW 1011,1 - 0,2
19.10.2017 01:00:00 14,6 13,6 21 12 31 17 ZW 1011,0 - 0,2
19.10.2017 00:00:00 14,7 13,6 19 10 33 18 ZW 1010,9 - 0,0
18.10.2017 23:00:00 14,8 13,7 20 11 30 16 ZW 1010,6 10 0,0
18.10.2017 22:00:00 14,5 13,5 16 9 21 12 ZZW 1010,4 - 0,2
18.10.2017 21:00:00 14,5 13,7 10 5 12 6 Z 1010,3 - 0,0
18.10.2017 20:00:00 14,6 13,8 7 4 12 6 Z 1010,1 15 0,2
18.10.2017 19:00:00 14,8 13,8 10 5 15 8 ZZW 1010,0 - 0,2
18.10.2017 18:00:00 15,0 14,0 8 5 22 12 Z 1010,3 - 0,0
18.10.2017 17:00:00 15,1 14,0 15 8 45 25 W 1009,9 10 1,7
18.10.2017 16:00:00 15,8 14,3 33 18 63 34 W 1010,0 - 0,6
18.10.2017 15:00:00 17,6 15,9 35 19 55 30 W 1009,0 - 2,4
18.10.2017 14:00:00 21,0 16,0 10 6 29 16 O 1008,5 - 0,0
18.10.2017 13:00:00 19,3 16,5 18 10 29 16 NO 1009,7 - 0,0
18.10.2017 12:00:00 19,6 16,2 12 7 18 10 ONO 1010,4 - 0,0
18.10.2017 11:00:00 19,5 16,3 8 5 27 15 WNW 1010,7 12 0,0
18.10.2017 10:00:00 20,0 17,2 12 6 21 11 W 1011,3 - 0,0
18.10.2017 09:00:00 19,5 13,2 7 4 14 8 Z 1011,2 - 0,0
18.10.2017 08:00:00 19,8 12,8 8 4 25 14 Z 1011,2 15 0,0
18.10.2017 07:00:00 19,7 12,5 14 7 24 13 Z 1011,5 - 0,0
18.10.2017 06:00:00 20,1 12,3 10 5 20 11 Z 1012,2 - 0,0
18.10.2017 05:00:00 19,5 12,7 5 3 17 9 ZW 1012,5 15 0,0
18.10.2017 04:00:00 19,8 13,5 8 5 27 14 Z 1012,9 - 0,0
18.10.2017 03:00:00 18,7 17,9 8 4 18 10 W 1013,2 - 0,0
18.10.2017 02:00:00 19,0 18,3 4 2 13 7 N 1013,6 - 0,0
18.10.2017 01:00:00 19,1 18,4 9 5 19 11 WNW 1014,1 - 0,0
18.10.2017 00:00:00 19,1 18,4 14 7 18 10 W 1014,6 - 0,0
17.10.2017 23:00:00 19,3 18,5 11 6 23 13 WNW 1014,8 12 0,0
17.10.2017 22:00:00 19,6 18,6 21 11 31 17 W 1014,8 - 0,0
17.10.2017 21:00:00 21,1 16,7 14 8 20 11 W 1014,6 - 0,2
17.10.2017 20:00:00 24,3 8,7 6 4 29 16 ZZW 1014,3 - 0,0
17.10.2017 19:00:00 25,6 8,6 19 11 41 22 Z 1014,0 - 0,0
17.10.2017 18:00:00 25,3 9,2 5 3 26 14 ZO 1013,8 - 0,0
17.10.2017 17:00:00 26,2 9,9 18 10 44 24 ZO 1014,0 20 0,0
17.10.2017 16:00:00 26,7 10,4 21 11 55 30 ZZO 1014,6 - 0,0
17.10.2017 15:00:00 25,0 11,2 27 14 63 34 Z 1015,1 - 0,0
17.10.2017 14:00:00 26,3 10,8 32 18 77 41 Z 1015,8 20 0,0
17.10.2017 13:00:00 25,0 11,5 41 22 80 43 Z 1016,0 - 0,0
17.10.2017 12:00:00 23,8 11,5 44 24 77 42 Z 1016,6 - 0,0
17.10.2017 11:00:00 22,8 10,9 50 27 - - Z 1016,9 20 0,0
17.10.2017 10:00:00 22,4 10,8 42 23 77 42 Z 1017,8 - 0,0
17.10.2017 09:00:00 21,5 10,0 12 7 37 20 ZZO 1017,7 - 0,0
17.10.2017 08:00:00 20,7 10,5 6 3 51 28 Z 1017,9 20 0,0
17.10.2017 07:00:00 21,0 10,5 15 8 42 23 Z 1018,0 - 0,0
17.10.2017 06:00:00 18,8 11,1 12 6 32 17 Z 1018,4 - 0,0
17.10.2017 05:00:00 15,7 14,9 6 4 23 12 O 1018,9 20 0,0
17.10.2017 04:00:00 16,0 15,4 12 6 18 10 NO 1019,9 - 0,0
17.10.2017 03:00:00 16,8 16,2 13 7 17 9 O 1021,0 - 0,0
17.10.2017 02:00:00 16,3 15,2 5 3 13 7 OZO 1021,8 - 0,0
17.10.2017 01:00:00 16,8 15,5 7 4 10 6 ZO 1022,6 - 0,0
17.10.2017 00:00:00 16,6 15,6 3 2 9 5 ZZO 1023,2 - 0,0
16.10.2017 23:00:00 16,6 15,5 8 4 10 5 ZZW 1023,6 20 0,0
16.10.2017 22:00:00 17,5 15,8 8 4 11 6 ZZW 1023,6 - 0,0
16.10.2017 21:00:00 18,1 16,1 10 5 19 11 ZW 1024,0 - 0,0
16.10.2017 20:00:00 19,2 16,8 16 9 24 13 WZW 1023,8 12 0,0
16.10.2017 19:00:00 19,9 16,3 13 7 26 14 WZW 1023,4 - 0,0
16.10.2017 18:00:00 21,5 17,1 22 12 34 18 W 1023,0 - 0,0
16.10.2017 17:00:00 22,0 17,8 26 14 41 22 W 1023,0 - 0,0
16.10.2017 16:00:00 21,9 18,3 33 18 45 24 W 1022,9 - 0,0
16.10.2017 15:00:00 29,9 13,6 15 8 47 25 Z 1021,7 - 0,0
16.10.2017 14:00:00 29,1 12,9 22 12 45 25 ZZO 1021,2 - 0,0
16.10.2017 13:00:00 28,7 12,2 18 10 36 19 ZZO 1021,7 - 0,0
16.10.2017 12:00:00 27,3 13,6 16 8 63 34 WZW 1021,5 - 0,0
16.10.2017 11:00:00 25,7 12,2 36 20 67 36 Z 1020,3 - 0,0
16.10.2017 10:00:00 24,5 12,4 34 18 53 29 Z 1020,4 - 0,0
16.10.2017 09:00:00 23,4 12,7 30 16 74 40 ZZW 1019,8 - 0,0
16.10.2017 08:00:00 23,4 12,7 21 11 63 34 Z 1019,3 20 0,0
16.10.2017 07:00:00 23,5 12,8 11 6 34 18 Z 1019,4 - 0,0
16.10.2017 06:00:00 23,6 13,2 8 4 72 39 Z 1019,2 - 0,0
16.10.2017 05:00:00 24,6 13,2 42 23 86 46 Z 1018,3 - 0,0
16.10.2017 04:00:00 25,0 13,2 42 23 81 44 Z 1018,5 - 0,0
16.10.2017 03:00:00 25,4 13,3 50 27 84 45 Z 1019,0 - 0,0
16.10.2017 02:00:00 25,7 13,2 45 24 95 51 Z 1019,3 - 0,0
16.10.2017 01:00:00 26,0 12,8 54 29 91 49 Z 1019,8 - 0,0
16.10.2017 00:00:00 26,1 12,9 56 31 84 45 Z 1020,0 - 0,0
15.10.2017 23:00:00 25,8 13,3 53 29 76 41 Z 1020,5 - 0,0
15.10.2017 22:00:00 25,2 14,0 25 13 53 28 Z 1020,2 - 0,0
15.10.2017 21:00:00 25,3 14,1 - - 49 26 - 1020,4 - 0,0
15.10.2017 20:00:00 25,5 14,3 22 12 37 20 Z 1020,3 - 0,0
15.10.2017 19:00:00 26,4 14,5 21 12 40 22 Z 1020,1 - 0,0
15.10.2017 18:00:00 27,8 14,8 21 12 42 23 Z 1020,1 - 0,0
15.10.2017 17:00:00 28,3 14,5 26 14 46 25 Z 1020,0 18 0,0
15.10.2017 16:00:00 27,7 14,3 22 12 49 27 Z 1020,6 - 0,0
15.10.2017 15:00:00 27,7 14,7 30 16 50 27 Z 1020,8 - 0,0
15.10.2017 14:00:00 26,9 14,0 27 14 50 27 Z 1021,8 - 0,0
15.10.2017 13:00:00 25,8 14,3 37 20 69 37 Z 1022,4 - 0,0
15.10.2017 12:00:00 24,8 14,3 40 22 79 43 Z 1022,3 - 0,0
15.10.2017 11:00:00 24,1 13,9 43 23 70 38 Z 1022,3 - 0,0
15.10.2017 10:00:00 23,3 13,7 45 25 72 39 Z 1021,9 - 0,0
15.10.2017 09:00:00 22,8 13,8 42 23 71 38 Z 1021,4 - 0,0
15.10.2017 08:00:00 22,7 13,7 41 22 66 35 Z 1021,8 10 0,0
15.10.2017 07:00:00 23,1 14,1 40 21 64 35 Z 1021,1 - 0,0
15.10.2017 06:00:00 23,6 14,0 43 23 67 36 Z 1020,9 - 0,0
15.10.2017 05:00:00 23,7 14,1 40 22 65 35 Z 1020,9 20 0,0
15.10.2017 04:00:00 24,1 14,2 40 21 61 33 Z 1021,2 - 0,0
15.10.2017 03:00:00 24,5 14,3 36 19 56 31 Z 1021,4 - 0,0
15.10.2017 02:00:00 24,8 14,3 33 18 55 30 Z 1021,6 20 0,0
15.10.2017 01:00:00 25,0 14,5 34 19 54 29 Z 1021,6 - 0,0
15.10.2017 00:00:00 24,9 15,0 32 17 57 31 Z 1021,6 - 0,0
14.10.2017 23:00:00 23,7 14,4 12 6 33 18 ZZW 1021,9 - 0,0
14.10.2017 22:00:00 23,8 15,0 19 10 35 19 ZZO 1021,8 - 0,0
14.10.2017 21:00:00 20,5 18,1 8 5 15 8 ZO 1022,0 - 0,0
14.10.2017 20:00:00 22,1 17,9 12 7 16 9 ZO 1021,6 - 0,0
14.10.2017 19:00:00 24,2 17,7 13 7 21 12 O 1021,1 - 0,0
14.10.2017 18:00:00 26,4 18,3 15 8 23 13 O 1021,0 - 0,0
14.10.2017 17:00:00 27,1 18,1 13 7 21 11 ONO 1021,2 - 0,0
14.10.2017 16:00:00 25,0 17,7 10 6 19 10 ONO 1021,7 - 0,0
14.10.2017 15:00:00 26,4 16,6 13 7 20 11 O 1022,0 - 0,0
14.10.2017 14:00:00 25,1 16,5 14 8 21 11 O 1022,7 - 0,0
14.10.2017 13:00:00 23,6 16,4 11 6 - - O 1023,6 - -
14.10.2017 12:00:00 - - - - - - - - - -
14.10.2017 11:00:00 17,7 15,5 - - - - - 1024,8 - 0,0
14.10.2017 10:00:00 17,9 16,4 16 9 23 12 O 1024,6 - 0,0
14.10.2017 09:00:00 16,5 15,5 11 6 17 9 ZO 1024,5 - 0,0
14.10.2017 08:00:00 16,7 15,7 7 4 12 6 ZZO 1024,4 - 0,0
14.10.2017 07:00:00 17,2 15,9 6 3 10 6 ZZO 1024,4 - 0,0
14.10.2017 06:00:00 17,4 16,1 3 2 8 5 ZZO 1024,7 - 0,0
14.10.2017 05:00:00 17,5 16,2 7 4 9 5 Z 1024,7 - 0,0
14.10.2017 04:00:00 17,4 15,9 7 4 11 6 ZZW 1025,1 - 0,0
14.10.2017 03:00:00 17,8 16,1 6 3 15 8 Z 1025,5 - 0,0
14.10.2017 02:00:00 18,7 16,7 11 6 20 11 W 1025,6 - 0,0
14.10.2017 01:00:00 18,7 17,0 14 7 21 11 W 1025,9 12 0,0
14.10.2017 00:00:00 18,7 17,2 12 6 24 13 WZW 1025,8 - 0,0
13.10.2017 23:00:00 18,5 17,0 12 6 23 12 WZW 1025,7 - 0,0
13.10.2017 22:00:00 18,7 17,2 16 9 32 17 WZW 1025,4 - 0,0
13.10.2017 21:00:00 18,8 17,6 22 12 34 18 W 1025,0 - 0,0
13.10.2017 20:00:00 18,8 17,6 25 14 38 21 W 1024,5 8 0,0
13.10.2017 19:00:00 19,5 18,2 28 15 40 22 W 1023,9 - 0,0
13.10.2017 18:00:00 20,8 18,6 26 14 35 19 W 1023,6 - 0,0
13.10.2017 17:00:00 21,9 19,3 19 10 26 14 W 1023,4 8 0,0
13.10.2017 16:00:00 21,6 18,2 14 7 16 9 W 1023,3 - 0,0
13.10.2017 15:00:00 23,7 16,0 8 5 10 5 W 1023,5 - 0,0
13.10.2017 14:00:00 23,6 15,6 0 0 6 4 N 1023,8 12 0,0
13.10.2017 13:00:00 23,0 15,6 4 2 8 4 NNO 1024,2 - 0,0
13.10.2017 12:00:00 21,4 16,4 3 1 8 5 NNW 1024,4 - 0,0

tt = temperatuur
td = dauwpunt
ff = windsnelheid
fx = windstoten
dd = windrichting
ppp = luchtdruk
vv = zicht
rr = neerslag

Weerstations in de omgeving